Air Resources Laboratory banner image
Air Resources Laboratory web site National Oceanic and Atmospheric Administration (NOAA)

mn roundup


Office: MPX

ASUS43 KMPX 141801
RWRMN
WEATHER ROUNDUP FOR MINNESOTA
NATIONAL WEATHER SERVICE TWIN CITIES/CHANHASSEN MN
1200 PM CST THU DEC 14 2017


NOTE: "FAIR" INDICATES FEW OR NO CLOUDS BELOW 12,000 FEET WITH NO
SIGNIFICANT WEATHER AND/OR OBSTRUCTIONS TO VISIBILITY. N/A MEANS
CURRENT SKY AND/OR WEATHER CONDITIONS ARE NOT AVAILABLE.

MNZ060>063-068>070-141900-
   Twin Cities Metro

CITY           SKY/WX    TMP DP  RH WIND       PRES   REMARKS
TWIN CITIES    CLOUDY    21  16  81 SW6       30.04F WCI  13
6HR MIN TEMP:  15; 6HR MAX TEMP:  21; 6HR PCP: TRACE;

ST PAUL        CLOUDY    21  16  81 SW7       30.05F WCI  12
CRYSTAL        CLOUDY    21  13  71 W7        30.03S WCI  12
BLAINE         CLOUDY    21  18  86 W6        30.03S WCI  14
LAKEVILLE      CLOUDY    19  18  93 CALM      30.03F
EDEN PRAIRIE   CLOUDY    20  14  77 W3        30.03F
6HR MIN TEMP:  13; 6HR MAX TEMP:  20; 6HR PCP: TRACE;

SOUTH ST PAUL  CLOUDY    22  16  76 W6        30.04F WCI  15
LAKE ELMO      FLURRIES  23  18  80 W7        30.04S WCI  15
$$
MNZ001>005-007-008-013>017-022>024-027-028-141900-
   Northwest Minnesota

CITY           SKY/WX    TMP DP  RH WIND       PRES   REMARKS
BEMIDJI        LGT SNOW  16  12  85 NW12      29.98S WCI   3
HALLOCK        CLOUDY    16  12  86 N13       30.07F WCI   2
ROSEAU         LGT SNOW  14   9  79 NW10      30.02S WCI   1
WARROAD        LGT SNOW  12   9  85 NW8       30.01F WCI   1
THIEF RVR FALL LGT SNOW  16  12  86 NW22      30.04S FOG     WCI  -2
CROOKSTON      CLOUDY    19  16  86 N15       30.08S WCI   5
FOSSTON        LGT SNOW  18  12  79 NW13      30.01F WCI   4
DETROIT LAKES  FLURRIES  21  18  86 NW13      30.03S WCI   9
MOORHEAD       CLOUDY    23  18  80 N12       30.08S WCI  12
PARK RAPIDS    LGT SNOW  19  13  77 NW10      29.98F WCI   7
MAHNOMEN       CLOUDY    19  15  88 NW15G21   30.03S WCI   4
$$
MNZ006-009>011-018-025>026-141900-
   North Central Minnesota

CITY           SKY/WX    TMP DP  RH WIND       PRES   REMARKS
BAUDETTE       PTSUNNY   10   6  84 NW10      29.98F WCI  -4
FLAG ISLAND    FLURRIES  10   7  85 NW12      29.97F WCI  -4
INTL FALLS     CLOUDY    14   7  73 W9        29.95F HAZE    WCI   2
6HR MIN TEMP:  10; 6HR MAX TEMP:  15; 6HR PCP:  0.01;

WASKISH        FLURRIES  14  10  85 NW8       29.99S WCI   3
BIG FORK       LGT SNOW  16  10  79 W5        29.95F WCI   9
LONGVILLE      FLURRIES  18  12  79 NW7       29.98F WCI   8
GRAND RAPIDS   LGT SNOW  18  10  71 NW9       29.98S WCI   7
CRANE LAKE     FLURRIES  14   9  79 W3        29.97S
ORR            FLURRIES  14   7  73 W3        29.92S
COOK           FLURRIES  14   9  79 W7        29.94F WCI   4
WALKER         LGT SNOW  16  12  84 NW9G17    29.98S WCI   5
$$
MNZ012-019>021-037-141900-
   Northeast Minnesota

CITY           SKY/WX    TMP DP  RH WIND       PRES   REMARKS
DULUTH         LGT SNOW  15  11  83 W9        29.93F FOG     WCI   3
6HR MIN TEMP:  14; 6HR MAX TEMP:  16; 6HR PCP: TRACE;

ELY            FLURRIES  14   9  79 W6        29.91F WCI   5
HIBBING        LGT SNOW  13   7  77 NW9       29.94F WCI   1
EVELETH        LGT SNOW  14   5  68 NW8       29.94F WCI   2
DULUTH HARBOR  FLURRIES  19  16  86 SW7       30.00F WCI  10
TWO HARBORS    LGT SNOW  23  16  74 W5        29.93F WCI  17
SILVER BAY     PTSUNNY   19  14  79 SW3       29.92F
GRAND MARAIS     N/A     20  12  71 SW5       29.96F WCI  13
G MARAIS ARPRT LGT SNOW  12   7  79 CALM      29.86F
$$
MNZ029>031-032-039>041-046>048-054>057-064-141900-
   West Central Minnesota

CITY           SKY/WX    TMP DP  RH WIND       PRES   REMARKS
FERGUS FALLS   FLURRIES  21  19  93 NW10      30.08F WCI  10
WHEATON        LGT SNOW  25  19  80 NW7       30.09F WCI  17
MORRIS         CLOUDY    25  19  80 NW8       30.04F WCI  16
ALEXANDRIA     CLOUDY    21  16  81 NW10      30.02F WCI  10
ELBOW LAKE     FLURRIES  21  19  92 NW10      30.05S WCI  10
WADENA         LGT SNOW  19  16  86 W7        30.00F WCI  10
GLENWOOD       CLOUDY    21  18  86 NW12      30.02F WCI   9
APPLETON         N/A     27  19  74 N6        30.06F WCI  20
BENSON         CLOUDY    25  18  74 N9        30.06S WCI  15
ORTONVILLE     CLOUDY    25  19  80 CALM      30.06S
MADISON        LGT SNOW  28  23  80 NW5       30.06F WCI  23
WILLMAR        CLOUDY    23  19  86 NW12      30.04F WCI  12
$$
MNZ033>034-036-042>043-049>051-058-059-141900-
   Central Minnesota

CITY           SKY/WX    TMP DP  RH WIND       PRES   REMARKS
ST CLOUD       LGT SNOW  20  16  84 NW6       30.02F FOG     WCI  12
6HR MIN TEMP:  15; 6HR MAX TEMP:  20; 6HR PCP:  0.01;

SAUK CENTRE    FAIR      19  14  81 NW9       30.02S WCI   8
PAYNESVILLE    CLOUDY    20  17  88 NW7       30.02F WCI  11
AITKIN         FLURRIES  16  10  79 W6        29.97F WCI   7
PINE RIVER     FLURRIES  16  10  79 NW7       30.02F WCI   6
BRAINERD       SNOW      18  12  77 NW8       30.00F VSB 1/2 WCI   8
STAPLES        LGT SNOW  18  14  86 NW6       30.00F WCI   9
LONG PRAIRIE   PTSUNNY   19  14  79 W9        30.01F WCI   9
LITTLE FALLS   CLOUDY    19  10  68 W7        30.02S WCI  10
LITCHFIELD     CLOUDY    21  19  93 NW7       30.04S WCI  13
BUFFALO        CLOUDY    20  16  83 W8        30.04S WCI  11
MAPLE LAKE     CLOUDY    22  18  87 W6        30.04S WCI  14
HUTCHINSON     CLOUDY    21  18  88 NW10      30.04S WCI  10
$$
MNZ037-044-045-052-053-141900-
   East Central Minnesota

CITY           SKY/WX    TMP DP  RH WIND       PRES   REMARKS
PRINCETON      LGT SNOW  21  18  86 W3        30.02S VSB 1
MORA           LGT SNOW  19  14  79 W7        30.02F WCI  10
CAMBRIDGE      LGT SNOW  19  12  73 W3        30.03S
RUSH CITY      FLURRIES  19  14  83 W5        30.02F WCI  12
MOOSE LAKE     LGT SNOW  19  12  73 CALM      29.97F
HINCKLEY       LGT SNOW  19  14  79 W6        30.00F WCI  11
CLOQUET        LGT SNOW  16  10  79 W6        29.95F WCI   7
MCGREGOR       CLOUDY    19  12  73 W7        29.98F WCI  10
$$
MNZ071>073-080-081-089-090-097-098-141900-
   Southwest Minnesota

CITY           SKY/WX    TMP DP  RH WIND       PRES   REMARKS
MONTEVIDEO     CLOUDY    25  21  86 N8        30.06S WCI  16
GRANITE FALLS  CLOUDY    27  22  82 NW10      30.07S WCI  17
CANBY          LGT SNOW  28  24  85 CALM      30.06F
MARSHALL       FLURRIES  27  22  81 NW9       30.05F WCI  18
REDWOOD FALLS  CLOUDY    25  52 100 MISG      30.05S
OLIVIA         CLOUDY    25  19  80 NW15      30.04S WCI  12
PIPESTONE      CLOUDY    30  25  80 N8        30.01F WCI  23
WINDOM           N/A     28  16  59 NW12G17   30.02F WCI  18
WORTHINGTON    CLOUDY    29  24  82 NW14      30.03S WCI  18
JACKSON        CLOUDY    28  21  74 MISG      30.03S
SLAYTON        CLOUDY    29  23  77 NW13G18   30.03S WCI  19
$$
MNZ065>067-074>077-082>085-091>093-141900-
   South Central Minnesota

CITY           SKY/WX    TMP DP  RH WIND       PRES   REMARKS
MANKATO        CLOUDY    21  17  84 CALM      30.05S
NEW ULM        CLOUDY    21  18  86 NW8       30.04F WCI  12
ST JAMES       CLOUDY    25  19  80 W10       30.05F WCI  15
FAIRMONT       CLOUDY    24  18  77 NW8       30.05S WCI  15
GLENCOE        CLOUDY    22  19  87 W5        30.03F WCI  16
FARIBAULT      CLOUDY    19  16  86 S3        30.04F
OWATONNA       CLOUDY    21  18  86 SW7       30.02F WCI  13
WASECA         CLOUDY    21  19  93 SW6       30.05F WCI  14
$$
MNZ078>079-086>088-094>096-141900-
   Southeast Minnesota

CITY           SKY/WX    TMP DP  RH WIND       PRES   REMARKS
ROCHESTER      SUNNY     22  15  75 SW6       30.02F WCI  14
6HR MIN TEMP:   6; 6HR MAX TEMP:  25;

RED WING       CLOUDY    25  14  63 SW7       30.03F WCI  17
STANTON        CLOUDY    23  17  79 W7        30.02F WCI  14
DODGE CENTER   MOSUNNY   21  18  86 SW7       30.01F WCI  13
WINONA           N/A     28  14  54 SW5       30.06F WCI  23
PRESTON        MOSUNNY   23  13  66 S7        30.02F WCI  15
$$
ABBREVIATIONS USED IN REMARKS
   TC - TEMPERATURES IN CELSIUS
  WCI - WIND CHILL INDEX
   HX - HEAT INDEX
  VSB - VISIBILITY
$$


ASUS43 KMPX 141810
RWRMN
WEATHER ROUNDUP FOR MINNESOTA
NATIONAL WEATHER SERVICE TWIN CITIES/CHANHASSEN MN
1200 PM CST THU DEC 14 2017


NOTE: "FAIR" INDICATES FEW OR NO CLOUDS BELOW 12,000 FEET WITH NO
SIGNIFICANT WEATHER AND/OR OBSTRUCTIONS TO VISIBILITY. N/A MEANS
CURRENT SKY AND/OR WEATHER CONDITIONS ARE NOT AVAILABLE.

MNZ060>063-068>070-141900-
   Twin Cities Metro

CITY           SKY/WX    TMP DP  RH WIND       PRES   REMARKS
TWIN CITIES    CLOUDY    21  16  81 W6        30.04F WCI  13
6HR MIN TEMP:  15; 6HR MAX TEMP:  21; 6HR PCP: TRACE;

ST PAUL        CLOUDY    21  16  81 SW7       30.05F WCI  12
CRYSTAL        CLOUDY    21  13  71 W7        30.03S WCI  12
BLAINE         CLOUDY    21  18  86 W6        30.03S WCI  14
LAKEVILLE      CLOUDY    19  16  86 W7        30.03F WCI  10
EDEN PRAIRIE   CLOUDY    20  14  77 W3        30.03F
6HR MIN TEMP:  13; 6HR MAX TEMP:  20; 6HR PCP: TRACE;

SOUTH ST PAUL  CLOUDY    22  16  76 W6        30.04F WCI  15
LAKE ELMO      CLOUDY    21  18  86 W9        30.04S WCI  11
$$
MNZ001>005-007-008-013>017-022>024-027-028-141900-
   Northwest Minnesota

CITY           SKY/WX    TMP DP  RH WIND       PRES   REMARKS
BEMIDJI        LGT SNOW  16  12  85 NW12      29.98S WCI   3
HALLOCK        CLOUDY    16  12  86 N13       30.07F WCI   2
ROSEAU         LGT SNOW  14   9  79 NW10      30.02S WCI   1
WARROAD        LGT SNOW  12   9  85 NW8       30.01F WCI   1
THIEF RVR FALL LGT SNOW  16  12  86 NW20      30.04S FOG     WCI  -1
CROOKSTON      CLOUDY    19  16  86 N15       30.08S WCI   5
FOSSTON        LGT SNOW  18  12  79 NW13      30.01F WCI   4
DETROIT LAKES  FLURRIES  21  18  86 NW13      30.03S WCI   9
MOORHEAD       CLOUDY    23  18  80 N12       30.08S WCI  12
PARK RAPIDS    LGT SNOW  19  13  77 NW10      29.98F WCI   7
MAHNOMEN       LGT SNOW  19  16  88 NW16      30.02F WCI   4
$$
MNZ006-009>011-018-025>026-141900-
   North Central Minnesota

CITY           SKY/WX    TMP DP  RH WIND       PRES   REMARKS
BAUDETTE       PTSUNNY   10   6  84 NW10      29.97F WCI  -4
FLAG ISLAND    FLURRIES  10   7  85 NW12      29.97F WCI  -4
INTL FALLS     CLOUDY    14   7  73 W9        29.95F HAZE    WCI   2
6HR MIN TEMP:  10; 6HR MAX TEMP:  15; 6HR PCP:  0.01;

WASKISH        FLURRIES  14  10  85 NW8       29.99S WCI   3
BIG FORK       LGT SNOW  16  10  79 W5        29.95F WCI   9
LONGVILLE      FLURRIES  18  12  79 NW7       29.98F WCI   8
GRAND RAPIDS   LGT SNOW  18  10  71 NW9       29.98S WCI   7
CRANE LAKE     FLURRIES  14   9  79 W3        29.97S
ORR            FLURRIES  14   7  73 W3        29.92S
COOK           FLURRIES  14   9  79 W7        29.94F WCI   4
WALKER         LGT SNOW  16  12  84 NW9G17    29.98S WCI   5
$$
MNZ012-019>021-037-141900-
   Northeast Minnesota

CITY           SKY/WX    TMP DP  RH WIND       PRES   REMARKS
DULUTH         LGT SNOW  16  10  77 W12       29.93F WCI   3
6HR MIN TEMP:  14; 6HR MAX TEMP:  16; 6HR PCP: TRACE;

ELY            FLURRIES  14   9  79 W6        29.91F WCI   5
HIBBING        LGT SNOW  13   7  77 NW9       29.94F WCI   1
EVELETH        LGT SNOW  14   5  68 NW8       29.94F WCI   2
DULUTH HARBOR  FLURRIES  19  16  86 SW7       30.00F WCI  10
TWO HARBORS    LGT SNOW  23  16  74 W5        29.93F WCI  17
SILVER BAY     PTSUNNY   19  14  79 SW3       29.92F
GRAND MARAIS     N/A     20  12  71 SW5       29.96F WCI  13
G MARAIS ARPRT LGT SNOW  12   7  79 CALM      29.86F
$$
MNZ029>031-032-039>041-046>048-054>057-064-141900-
   West Central Minnesota

CITY           SKY/WX    TMP DP  RH WIND       PRES   REMARKS
FERGUS FALLS   FLURRIES  21  19  93 NW10      30.08F WCI  10
WHEATON        LGT SNOW  25  19  80 NW7       30.09F WCI  17
MORRIS         CLOUDY    25  19  80 NW8       30.04F WCI  16
ALEXANDRIA     CLOUDY    21  16  81 NW10      30.02F WCI  10
ELBOW LAKE     FLURRIES  21  19  92 NW10      30.05S WCI  10
WADENA         LGT SNOW  19  16  86 W7        30.00F WCI  10
GLENWOOD       CLOUDY    21  18  86 NW12      30.02F WCI   9
APPLETON         N/A     27  19  74 N6        30.06F WCI  20
BENSON         CLOUDY    25  18  74 N9        30.06S WCI  15
ORTONVILLE     CLOUDY    25  19  80 CALM      30.06S
MADISON        LGT SNOW  28  23  80 NW5       30.06F WCI  23
WILLMAR        CLOUDY    23  19  86 NW12      30.04F WCI  12
$$
MNZ033>034-036-042>043-049>051-058-059-141900-
   Central Minnesota

CITY           SKY/WX    TMP DP  RH WIND       PRES   REMARKS
ST CLOUD       LGT SNOW  20  16  84 NW6       30.02F FOG     WCI  12
6HR MIN TEMP:  15; 6HR MAX TEMP:  20; 6HR PCP:  0.01;

SAUK CENTRE    FAIR      19  14  81 NW9       30.02S WCI   8
PAYNESVILLE    CLOUDY    20  17  88 NW7       30.02F WCI  11
AITKIN         FLURRIES  16  10  79 W6        29.97F WCI   7
PINE RIVER     FLURRIES  16  10  79 NW7       30.02F WCI   6
BRAINERD       LGT SNOW  18  12  77 W9        30.00F WCI   7
STAPLES        LGT SNOW  18  14  86 NW6       30.00F WCI   9
LONG PRAIRIE   PTSUNNY   19  14  79 W9        30.01F WCI   9
LITTLE FALLS   CLOUDY    19  10  68 W7        30.02S WCI  10
LITCHFIELD     CLOUDY    21  19  93 NW7       30.04S WCI  13
BUFFALO        CLOUDY    20  16  83 W8        30.04S WCI  11
MAPLE LAKE     CLOUDY    22  18  87 W6        30.04S WCI  14
HUTCHINSON     CLOUDY    21  18  88 NW10      30.04S WCI  10
$$
MNZ037-044-045-052-053-141900-
   East Central Minnesota

CITY           SKY/WX    TMP DP  RH WIND       PRES   REMARKS
PRINCETON      LGT SNOW  21  18  86 W3        30.02S VSB 1
MORA           LGT SNOW  19  14  79 W7        30.02F WCI  10
CAMBRIDGE      LGT SNOW  19  12  73 W3        30.03S
RUSH CITY      FLURRIES  19  14  83 W5        30.02F WCI  12
MOOSE LAKE     LGT SNOW  19  12  73 CALM      29.97F
HINCKLEY       LGT SNOW  19  14  79 W6        30.00F WCI  11
CLOQUET        LGT SNOW  16  10  79 W6        29.95F WCI   7
MCGREGOR       CLOUDY    19  12  73 W7        29.98F WCI  10
$$
MNZ071>073-080-081-089-090-097-098-141900-
   Southwest Minnesota

CITY           SKY/WX    TMP DP  RH WIND       PRES   REMARKS
MONTEVIDEO     CLOUDY    25  21  86 N8        30.06S WCI  16
GRANITE FALLS  CLOUDY    27  22  80 NW10      30.07S WCI  17
CANBY          LGT SNOW  28  24  85 CALM      30.06F
MARSHALL       FLURRIES  27  22  81 NW9       30.05F WCI  18
REDWOOD FALLS  CLOUDY    25  52 100 MISG      30.05S
OLIVIA         CLOUDY    25  19  80 NW15      30.04S WCI  12
PIPESTONE      CLOUDY    30  25  80 N8        30.01F WCI  23
WINDOM           N/A     28  16  59 NW12G17   30.02F WCI  18
WORTHINGTON    CLOUDY    29  24  82 NW14      30.03S WCI  18
JACKSON        CLOUDY    28  21  74 MISG      30.03S
SLAYTON        CLOUDY    29  23  77 NW13      30.03S WCI  19
$$
MNZ065>067-074>077-082>085-091>093-141900-
   South Central Minnesota

CITY           SKY/WX    TMP DP  RH WIND       PRES   REMARKS
MANKATO        CLOUDY    21  17  84 CALM      30.05S
NEW ULM        CLOUDY    21  18  86 NW8       30.04F WCI  12
ST JAMES       CLOUDY    25  19  80 W10       30.05F WCI  15
FAIRMONT       CLOUDY    25  19  80 NW8       30.05S WCI  16
GLENCOE        CLOUDY    22  19  87 W5        30.03F WCI  16
FARIBAULT      CLOUDY    19  16  86 S3        30.04F
OWATONNA       CLOUDY    21  18  86 SW7       30.02F WCI  13
WASECA         CLOUDY    21  19  93 SW6       30.05F WCI  14
ALBERT LEA     CLOUDY    21  16  79 NW5       30.03R WCI  15
$$
MNZ078>079-086>088-094>096-141900-
   Southeast Minnesota

CITY           SKY/WX    TMP DP  RH WIND       PRES   REMARKS
ROCHESTER      SUNNY     22  15  75 SW6       30.02F WCI  14
6HR MIN TEMP:   6; 6HR MAX TEMP:  25;

RED WING       CLOUDY    25  14  63 SW7       30.03F WCI  17
STANTON        CLOUDY    23  17  79 W7        30.02F WCI  14
DODGE CENTER   MOSUNNY   21  18  86 SW7       30.01F WCI  13
WINONA           N/A     28  14  54 SW5       30.06F WCI  23
AUSTIN         CLOUDY    21  16  79 W3        30.03S
PRESTON        MOSUNNY   23  13  66 S7        30.02F WCI  15
$$
ABBREVIATIONS USED IN REMARKS
   TC - TEMPERATURES IN CELSIUS
  WCI - WIND CHILL INDEX
   HX - HEAT INDEX
  VSB - VISIBILITY
$$




Office: FSD ASUS43 KFSD 141802 RWRFSD WEATHER ROUNDUP FOR SE SOUTH DAKOTA/SW MINNESOTA/NW IOWA NATIONAL WEATHER SERVICE SIOUX FALLS SD 1200 PM CST THU DEC 14 2017 NOTE: "FAIR" INDICATES FEW OR NO CLOUDS BELOW 12,000 FEET WITH NO SIGNIFICANT WEATHER AND OR OBSTRUCTIONS TO VISIBILITY. SDZ038>040-050-052>070-141900- SOUTHEAST SOUTH DAKOTA CITY SKY/WX TMP DP RH WIND PRES REMARKS BROOKINGS MIX PCPN 31 27 85 N8 30.02F WCI 23 CHAMBERLAIN CLOUDY 36 35 97 NW12G21 30.09S 6HR MIN TEMP: 30; 6HR MAX TEMP: 37; HURON CLOUDY 34 29 82 NW14 30.06S WCI 25 6HR MIN TEMP: 26; 6HR MAX TEMP: 34; 6HR PCP: TRACE; MADISON CLOUDY 32 32 100 NW7 30.02F WCI 26 MITCHELL CLOUDY 36 28 73 W9 30.07F 6HR MIN TEMP: 25; 6HR MAX TEMP: 36; 6HR PCP: TRACE; SIOUX FALLS CLOUDY 35 27 72 NW7 30.04F WCI 29 6HR MIN TEMP: 28; 6HR MAX TEMP: 36; 6HR PCP: TRACE; WINNER CLOUDY 36 33 89 NW22G29 30.11R YANKTON CLOUDY 36 25 64 NW9 30.07S $$ MNZ071-072-080-081-089-090-097-098-141900- SOUTHWEST MINNESOTA CITY SKY/WX TMP DP RH WIND PRES REMARKS FAIRMONT CLOUDY 24 18 77 NW8 30.05S WCI 15 JACKSON CLOUDY 28 21 74 MISG 30.03S LUVERNE CLOUDY 32 27 80 W7 30.04F WCI 26 MARSHALL FLURRIES 27 22 81 NW9 30.05F WCI 18 6HR MIN TEMP: 21; 6HR MAX TEMP: 28; 6HR PCP: TRACE; MONTEVIDEO CLOUDY 25 21 86 N8 30.06S WCI 16 PIPESTONE CLOUDY 30 25 80 N8 30.01F WCI 23 REDWOOD FALLS CLOUDY 25 52 100 MISG 30.05S WINDOM N/A 28 16 59 NW12G17 30.02F WCI 18 WORTHINGTON CLOUDY 29 24 82 NW14 30.03S WCI 18 $$ IAZ001>003-012>014-020>022-031-032-NEZ013-014-SDZ071-141900- NORTHWEST IOWA CITY SKY/WX TMP DP RH WIND PRES REMARKS CHEROKEE CLOUDY 29 27 91 S6 30.05F WCI 23 DENISON CLOUDY 30 25 80 S5 30.07F WCI 25 ESTHERVILLE CLOUDY 27 21 78 NW8 30.03S WCI 19 LE MARS CLOUDY 36 27 69 CALM 30.05F ORANGE CITY CLOUDY 34 30 86 W5 30.04S WCI 30 SHELDON CLOUDY 30 28 93 CALM 30.03S SIOUX CITY CLOUDY 37 27 67 N7 30.06F 6HR MIN TEMP: 29; 6HR MAX TEMP: 38; SPENCER CLOUDY 28 21 75 W8 30.05S WCI 20 6HR MIN TEMP: 23; 6HR MAX TEMP: 28; STORM LAKE CLOUDY 28 23 80 SW8 30.03F WCI 20 $$ ABBREVIATIONS USED IN REMARKS TC - TEMPERATURE IN CELSIUS WCI - WIND CHILL INDEX HX - HEAT INDEX VSB - VISIBILITY ASUS43 KFSD 141802 RWRSD WEATHER ROUNDUP FOR SOUTH DAKOTA NATIONAL WEATHER SERVICE SIOUX FALLS SD 1200 PM CST THU DEC 14 2017 NOTE: "FAIR" INDICATES FEW OR NO CLOUDS BELOW 12,000 FEET WITH NO SIGNIFICANT WEATHER AND/OR OBSTRUCTIONS TO VISIBILITY. SDZ001>005-009-010-012>017-141900- NORTHWEST AND NORTH CENTRAL SOUTH DAKOTA CITY SKY/WX TMP DP RH WIND PRES REMARKS BUFFALO N/A 32 28 85 NW23 30.14R WCI 19 FAITH N/A 32 31 96 NW20 30.15R WCI 20 MOBRIDGE CLOUDY 35 29 78 N20 30.08S WCI 24 $$ SDZ012>016-024>037-041>051-057-063-072>074-141900- SOUTHWEST AND SOUTH CENTRAL SOUTH DAKOTA CITY SKY/WX TMP DP RH WIND PRES REMARKS RAPID CTY ARPT LGT SNOW 33 24 69 NW30G44 30.19R WCI 19 PIERRE CLOUDY 34 32 92 N20 30.11R WCI 23 CUSTER CLOUDY 25 12 58 NW10G22 30.13R WCI 15 PHILIP MIX PCPN 34 32 92 NW22G31 30.16S WCI 22 PINE RIDGE CLOUDY 34 23 64 N21G30 30.19R WCI 22 SPEARFISH LGT SNOW 28 25 86 NW16G25 30.23R WCI 17 WINNER CLOUDY 36 33 89 NW22G29 30.11R $$ SDZ004>011-016>023-039-040-141900- NORTHEAST SOUTH DAKOTA CITY SKY/WX TMP DP RH WIND PRES REMARKS ABERDEEN CLOUDY 33 31 92 N13 30.07S WCI 24 WATERTOWN FLURRIES 30 28 92 NW8 30.01S WCI 22 BROOKINGS MIX PCPN 31 27 85 N8 30.02F WCI 23 SISSETON N/A 26 24 92 N10 30.07R WCI 16 $$ SDZ017-020-022-023-036>040-048>070-141900- SOUTHEAST SOUTH DAKOTA CITY SKY/WX TMP DP RH WIND PRES REMARKS SIOUX FALLS CLOUDY 35 27 72 NW7 30.04F WCI 29 HURON CLOUDY 34 29 82 NW14 30.06S WCI 25 CHAMBERLAIN CLOUDY 36 35 97 NW12G21 30.09S MITCHELL CLOUDY 36 28 73 W9 30.07F YANKTON CLOUDY 36 25 64 NW9 30.07S $$ ABBREVIATIONS USED IN REMARKS TC - TEMPERATURE IN CELSIUS WCI - WIND CHILL INDEX HX - HEAT INDEX VSB - VISIBILITY ASUS43 KFSD 141810 RWRSD WEATHER ROUNDUP FOR SOUTH DAKOTA NATIONAL WEATHER SERVICE SIOUX FALLS SD 1200 PM CST THU DEC 14 2017 NOTE: "FAIR" INDICATES FEW OR NO CLOUDS BELOW 12,000 FEET WITH NO SIGNIFICANT WEATHER AND/OR OBSTRUCTIONS TO VISIBILITY. SDZ001>005-009-010-012>017-141900- NORTHWEST AND NORTH CENTRAL SOUTH DAKOTA CITY SKY/WX TMP DP RH WIND PRES REMARKS BUFFALO N/A 32 28 85 NW23 30.14R WCI 19 FAITH N/A 32 31 96 NW20 30.15R WCI 20 MOBRIDGE CLOUDY 35 29 78 N20 30.08S WCI 24 $$ SDZ012>016-024>037-041>051-057-063-072>074-141900- SOUTHWEST AND SOUTH CENTRAL SOUTH DAKOTA CITY SKY/WX TMP DP RH WIND PRES REMARKS RAPID CTY ARPT LGT SNOW 33 24 69 NW30G44 30.19R WCI 19 PIERRE CLOUDY 34 32 92 N20 30.11R WCI 23 CUSTER CLOUDY 25 12 58 NW10G22 30.13R WCI 15 ELLSWORTH AFB LGT SNOW 32 27 80 NW23G39 30.18S WCI 19 PHILIP MIX PCPN 34 32 92 NW22G31 30.16S WCI 22 PINE RIDGE CLOUDY 34 23 64 N21G30 30.19R WCI 22 SPEARFISH LGT SNOW 28 25 86 NW16G25 30.23R WCI 17 WINNER LGT RAIN 36 33 89 NW18G29 30.11R $$ SDZ004>011-016>023-039-040-141900- NORTHEAST SOUTH DAKOTA CITY SKY/WX TMP DP RH WIND PRES REMARKS ABERDEEN CLOUDY 33 31 92 N13 30.07S WCI 24 WATERTOWN FLURRIES 30 28 92 NW8 30.01S WCI 22 BROOKINGS MIX PCPN 31 27 85 N8 30.02F WCI 23 SISSETON N/A 26 24 92 N10 30.07R WCI 16 $$ SDZ017-020-022-023-036>040-048>070-141900- SOUTHEAST SOUTH DAKOTA CITY SKY/WX TMP DP RH WIND PRES REMARKS SIOUX FALLS CLOUDY 35 27 72 NW7 30.04F WCI 29 HURON CLOUDY 34 29 82 NW14 30.06S WCI 25 CHAMBERLAIN CLOUDY 36 35 97 NW12G21 30.09S MITCHELL CLOUDY 36 28 73 W9 30.07F YANKTON CLOUDY 36 25 64 NW9 30.07S $$ ABBREVIATIONS USED IN REMARKS TC - TEMPERATURE IN CELSIUS WCI - WIND CHILL INDEX HX - HEAT INDEX VSB - VISIBILITY ASUS43 KFSD 141810 RWRFSD WEATHER ROUNDUP FOR SE SOUTH DAKOTA/SW MINNESOTA/NW IOWA NATIONAL WEATHER SERVICE SIOUX FALLS SD 1200 PM CST THU DEC 14 2017 NOTE: "FAIR" INDICATES FEW OR NO CLOUDS BELOW 12,000 FEET WITH NO SIGNIFICANT WEATHER AND OR OBSTRUCTIONS TO VISIBILITY. SDZ038>040-050-052>070-141900- SOUTHEAST SOUTH DAKOTA CITY SKY/WX TMP DP RH WIND PRES REMARKS BROOKINGS MIX PCPN 31 27 85 N8 30.02F WCI 23 CHAMBERLAIN CLOUDY 36 35 97 NW12G21 30.09S 6HR MIN TEMP: 30; 6HR MAX TEMP: 37; HURON CLOUDY 34 29 82 NW14 30.06S WCI 25 6HR MIN TEMP: 26; 6HR MAX TEMP: 34; 6HR PCP: TRACE; MADISON CLOUDY 32 32 100 NW7 30.02F WCI 26 MITCHELL CLOUDY 36 28 73 W9 30.07F 6HR MIN TEMP: 25; 6HR MAX TEMP: 36; 6HR PCP: TRACE; SIOUX FALLS CLOUDY 35 27 72 NW7 30.04F WCI 29 6HR MIN TEMP: 28; 6HR MAX TEMP: 36; 6HR PCP: TRACE; WINNER LGT RAIN 36 33 89 NW18G29 30.11R YANKTON CLOUDY 36 25 64 NW9 30.07S $$ MNZ071-072-080-081-089-090-097-098-141900- SOUTHWEST MINNESOTA CITY SKY/WX TMP DP RH WIND PRES REMARKS FAIRMONT CLOUDY 25 19 80 NW8 30.05S WCI 16 JACKSON CLOUDY 28 21 74 MISG 30.03S LUVERNE CLOUDY 32 27 80 W7 30.04F WCI 26 MARSHALL FLURRIES 27 22 81 NW9 30.05F WCI 18 6HR MIN TEMP: 21; 6HR MAX TEMP: 28; 6HR PCP: TRACE; MONTEVIDEO CLOUDY 25 21 86 N8 30.06S WCI 16 PIPESTONE CLOUDY 30 25 80 N8 30.01F WCI 23 REDWOOD FALLS CLOUDY 25 52 100 MISG 30.05S WINDOM N/A 28 16 59 NW12G17 30.02F WCI 18 WORTHINGTON CLOUDY 29 24 82 NW14 30.03S WCI 18 $$ IAZ001>003-012>014-020>022-031-032-NEZ013-014-SDZ071-141900- NORTHWEST IOWA CITY SKY/WX TMP DP RH WIND PRES REMARKS CHEROKEE CLOUDY 29 27 91 S6 30.05F WCI 23 DENISON CLOUDY 30 25 80 S5 30.07F WCI 25 ESTHERVILLE CLOUDY 27 21 78 NW8 30.03S WCI 19 LE MARS CLOUDY 36 27 69 CALM 30.05F ORANGE CITY CLOUDY 34 30 86 W5 30.04S WCI 30 SHELDON CLOUDY 30 28 93 CALM 30.03S SIOUX CITY CLOUDY 37 27 67 N7 30.06F 6HR MIN TEMP: 29; 6HR MAX TEMP: 38; SPENCER CLOUDY 28 21 75 W8 30.05S WCI 20 6HR MIN TEMP: 23; 6HR MAX TEMP: 28; STORM LAKE CLOUDY 28 23 80 SW8 30.03F WCI 20 $$ ABBREVIATIONS USED IN REMARKS TC - TEMPERATURE IN CELSIUS WCI - WIND CHILL INDEX HX - HEAT INDEX VSB - VISIBILITY